When you browse on this site, cookies collect data to enhance your experience and personalize the content and advertising you see.
Visit our Privacy Policy to learn more. By continuing to use the site, you agree to this use of cookies and data.
  • In Switzerland
  • List of Countries
  • For 7 days
  • Water Temperature
  • Weather Map
  • Weather Widgets
  • user-avatar
    Login

    Hourly Weather Porozy

    Today, 15 November, Friday

    Time Temperature Precipitation Wind Pressure Humidity
    00:00 +9°C° 0.2 mm 2 mps 760 mmHg 93%
    01:00 +9°C° 0.2 mm 1 mps 760 mmHg 92%
    02:00 +9°C° 0 mm 1 mps 761 mmHg 91%
    03:00 +9°C° 0.4 mm 1 mps 761 mmHg 91%
    04:00 +7°C° 0.4 mm 2 mps 761 mmHg 91%
    05:00 +7°C° 0.4 mm 2 mps 761 mmHg 91%
    06:00 +7°C° 0.3 mm 2 mps 762 mmHg 91%
    07:00 +7°C° 0.3 mm 2 mps 762 mmHg 91%
    08:00 +7°C° 0.3 mm 3 mps 762 mmHg 91%
    09:00 +7°C° 0.1 mm 3 mps 762 mmHg 90%
    10:00 +7°C° 0.1 mm 2 mps 763 mmHg 90%
    11:00 +7°C° 0.1 mm 2 mps 763 mmHg 89%
    12:00 +7°C° 0 mm 2 mps 763 mmHg 88%
    13:00 +7°C° 0 mm 2 mps 763 mmHg 87%
    14:00 +7°C° 0 mm 2 mps 763 mmHg 85%
    15:00 +6°C° 0 mm 2 mps 763 mmHg 86%
    16:00 +6°C° 0 mm 2 mps 762 mmHg 87%
    17:00 +5°C° 0 mm 2 mps 762 mmHg 88%
    18:00 +5°C° 0 mm 2 mps 762 mmHg 88%
    19:00 +5°C° 0 mm 2 mps 762 mmHg 88%
    20:00 +4°C° 0 mm 2 mps 762 mmHg 88%
    21:00 +4°C° 0 mm 2 mps 762 mmHg 88%
    22:00 +4°C° 0 mm 2 mps 762 mmHg 88%
    23:00 +4°C° 0 mm 2 mps 762 mmHg 88%

    Tomorrow, 16 November, Saturday

    Time Temperature Precipitation Wind Pressure Humidity
    00:00 +3°C° 0 mm 2 mps 762 mmHg 88%
    01:00 +3°C° 0 mm 2 mps 761 mmHg 89%
    02:00 +3°C° 0 mm 2 mps 761 mmHg 89%
    03:00 +3°C° 0 mm 2 mps 761 mmHg 90%
    04:00 +2°C° 0 mm 2 mps 761 mmHg 91%
    05:00 +3°C° 0 mm 1 mps 760 mmHg 92%
    06:00 +3°C° 0 mm 1 mps 760 mmHg 92%
    07:00 +3°C° 0 mm 1 mps 760 mmHg 92%
    08:00 +3°C° 0 mm 1 mps 760 mmHg 92%
    09:00 +3°C° 0 mm 1 mps 760 mmHg 90%
    10:00 +3°C° 0 mm 2 mps 760 mmHg 89%
    11:00 +3°C° 0 mm 2 mps 760 mmHg 87%
    12:00 +4°C° 0 mm 2 mps 760 mmHg 86%
    13:00 +4°C° 0 mm 2 mps 760 mmHg 86%
    14:00 +4°C° 0 mm 2 mps 760 mmHg 85%
    15:00 +4°C° 0 mm 2 mps 760 mmHg 88%
    16:00 +3°C° 0 mm 2 mps 760 mmHg 91%
    17:00 +3°C° 0 mm 2 mps 760 mmHg 94%
    18:00 +3°C° 0 mm 2 mps 760 mmHg 94%
    19:00 +3°C° 0 mm 2 mps 760 mmHg 94%
    20:00 +2°C° 0 mm 3 mps 760 mmHg 94%
    21:00 +2°C° 0 mm 3 mps 760 mmHg 94%
    22:00 +3°C° 0 mm 3 mps 760 mmHg 94%
    23:00 +3°C° 0 mm 3 mps 759 mmHg 95%

    Day after tomorrow, 17 November, Sunday

    Time Temperature Precipitation Wind Pressure Humidity
    00:00 +3°C° 0 mm 3 mps 759 mmHg 94%
    01:00 +4°C° 0 mm 3 mps 759 mmHg 94%
    02:00 +4°C° 0 mm 4 mps 759 mmHg 93%
    03:00 +5°C° 0 mm 4 mps 759 mmHg 94%
    04:00 +5°C° 0 mm 4 mps 759 mmHg 94%
    05:00 +5°C° 0 mm 4 mps 759 mmHg 94%
    06:00 +6°C° 0 mm 4 mps 759 mmHg 94%
    07:00 +6°C° 0 mm 4 mps 760 mmHg 94%
    08:00 +7°C° 0 mm 4 mps 760 mmHg 94%
    09:00 +7°C° 0 mm 4 mps 760 mmHg 93%
    10:00 +8°C° 0 mm 4 mps 761 mmHg 92%
    11:00 +8°C° 0 mm 4 mps 761 mmHg 90%
    12:00 +9°C° 0 mm 3 mps 761 mmHg 90%
    13:00 +9°C° 0 mm 3 mps 761 mmHg 90%
    14:00 +9°C° 0 mm 3 mps 761 mmHg 89%
    15:00 +9°C° 0 mm 3 mps 761 mmHg 91%
    16:00 +9°C° 0 mm 2 mps 761 mmHg 92%
    17:00 +9°C° 0 mm 2 mps 761 mmHg 93%
    18:00 +9°C° 0 mm 2 mps 761 mmHg 94%
    19:00 +9°C° 0 mm 2 mps 762 mmHg 94%
    20:00 +8°C° 0 mm 2 mps 762 mmHg 94%
    21:00 +8°C° 0 mm 2 mps 762 mmHg 95%
    22:00 +8°C° 0 mm 2 mps 762 mmHg 95%
    23:00 +9°C° 0 mm 1 mps 762 mmHg 95%

    18 November, Monday

    Time Temperature Precipitation Wind Pressure Humidity
    00:00 +8°C° 0 mm 2 mps 762 mmHg 95%
    01:00 +8°C° 0 mm 2 mps 762 mmHg 95%
    02:00 +8°C° 0 mm 2 mps 762 mmHg 95%
    03:00 +8°C° 0 mm 2 mps 762 mmHg 96%
    04:00 +7°C° 0 mm 2 mps 762 mmHg 96%
    05:00 +7°C° 0 mm 2 mps 762 mmHg 96%
    06:00 +7°C° 0 mm 2 mps 762 mmHg 96%
    07:00 +7°C° 0 mm 2 mps 762 mmHg 96%
    08:00 +7°C° 0 mm 2 mps 762 mmHg 96%
    09:00 +7°C° 0 mm 2 mps 762 mmHg 94%
    10:00 +8°C° 0 mm 2 mps 762 mmHg 91%
    11:00 +8°C° 0 mm 3 mps 762 mmHg 89%
    12:00 +8°C° 0 mm 3 mps 761 mmHg 87%
    13:00 +8°C° 0 mm 3 mps 761 mmHg 85%
    14:00 +8°C° 0 mm 3 mps 761 mmHg 83%
    15:00 +7°C° 0 mm 3 mps 761 mmHg 84%
    16:00 +7°C° 0 mm 3 mps 760 mmHg 85%
    17:00 +5°C° 0 mm 3 mps 760 mmHg 86%
    18:00 +5°C° 0 mm 3 mps 760 mmHg 85%
    19:00 +5°C° 0 mm 3 mps 760 mmHg 85%
    20:00 +5°C° 0 mm 4 mps 760 mmHg 84%
    21:00 +4°C° 0 mm 4 mps 760 mmHg 84%
    22:00 +4°C° 0 mm 4 mps 760 mmHg 84%
    23:00 +3°C° 0 mm 4 mps 760 mmHg 85%

    19 November, Tuesday

    Time Temperature Precipitation Wind Pressure Humidity
    00:00 +3°C° 0 mm 3 mps 760 mmHg 87%
    01:00 +3°C° 0 mm 3 mps 761 mmHg 89%
    02:00 +2°C° 0 mm 3 mps 761 mmHg 91%
    03:00 +2°C° 0 mm 3 mps 761 mmHg 92%
    04:00 +2°C° 0 mm 3 mps 761 mmHg 93%
    05:00 +2°C° 0 mm 3 mps 760 mmHg 93%
    06:00 +2°C° 0 mm 3 mps 761 mmHg 93%
    07:00 +2°C° 0 mm 3 mps 761 mmHg 93%
    08:00 +2°C° 0 mm 3 mps 761 mmHg 93%
    09:00 +3°C° 0 mm 3 mps 762 mmHg 93%
    10:00 +3°C° 0 mm 3 mps 762 mmHg 92%
    11:00 +4°C° 0 mm 3 mps 763 mmHg 92%
    12:00 +4°C° 0 mm 3 mps 763 mmHg 92%
    13:00 +5°C° 0 mm 2 mps 763 mmHg 92%
    14:00 +6°C° 0 mm 2 mps 763 mmHg 92%
    15:00 +6°C° 0 mm 2 mps 763 mmHg 93%
    16:00 +6°C° 0 mm 2 mps 763 mmHg 94%
    17:00 +6°C° 0 mm 2 mps 763 mmHg 95%
    18:00 +5°C° 0 mm 2 mps 763 mmHg 95%
    19:00 +5°C° 0 mm 2 mps 764 mmHg 95%
    20:00 +5°C° 0 mm 2 mps 764 mmHg 96%
    21:00 +5°C° 0 mm 2 mps 764 mmHg 96%
    22:00 +5°C° 0 mm 2 mps 764 mmHg 96%
    23:00 +5°C° 0 mm 2 mps 764 mmHg 97%

    20 November, Wednesday

    Time Temperature Precipitation Wind Pressure Humidity
    00:00 +5°C° 0 mm 2 mps 764 mmHg 97%
    01:00 +5°C° 0 mm 2 mps 764 mmHg 96%
    02:00 +5°C° 0 mm 2 mps 764 mmHg 96%
    03:00 +5°C° 0 mm 2 mps 764 mmHg 96%
    04:00 +5°C° 0 mm 2 mps 764 mmHg 95%
    05:00 +7°C° 0 mm 1 mps 765 mmHg 95%
    06:00 +6°C° 0 mm 2 mps 765 mmHg 94%
    07:00 +6°C° 0 mm 2 mps 765 mmHg 93%
    08:00 +6°C° 0 mm 2 mps 765 mmHg 92%
    09:00 +6°C° 0 mm 2 mps 765 mmHg 91%
    10:00 +6°C° 0 mm 2 mps 766 mmHg 89%
    11:00 +7°C° 0 mm 2 mps 766 mmHg 88%
    12:00 +7°C° 0 mm 2 mps 766 mmHg 88%
    13:00 +7°C° 0 mm 2 mps 766 mmHg 87%
    14:00 +7°C° 0 mm 2 mps 766 mmHg 87%
    15:00 +7°C° 0 mm 2 mps 766 mmHg 88%
    16:00 +6°C° 0 mm 2 mps 766 mmHg 89%
    17:00 +6°C° 0 mm 2 mps 766 mmHg 91%
    18:00 +6°C° 0 mm 2 mps 766 mmHg 90%
    19:00 +5°C° 0 mm 3 mps 766 mmHg 89%
    20:00 +4°C° 0 mm 3 mps 766 mmHg 88%
    21:00 +4°C° 0 mm 3 mps 766 mmHg 88%
    22:00 +4°C° 0 mm 3 mps 766 mmHg 87%
    23:00 +4°C° 0 mm 3 mps 766 mmHg 86%
    Show more